Theta_e
332 341 355 355 353 351 348 347 347 346 345 342 341 340 340 339 337 335 333 333 332 333 334 335 336 337 339 340 341 342 344 345 351 353 355 357 355 352 354 359 359 355 359
334 343 355 354 353 352 351 350 349 348 347 344 341 341 341 340 339 338 337 334 334 334 335 336 336 337 338 339 341 342 343 344 349 353 354 355 356 356 357 359 358 355 359
333 344 351 355 354 353 352 351 351 350 349 345 345 345 344 343 342 341 340 339 337 337 336 337 337 337 337 340 342 342 342 344 347 351 354 350 350 355 356 357 357 356 357
335 342 347 355 354 354 353 353 353 351 349 347 347 347 347 345 343 342 342 341 340 340 340 339 338 338 338 337 340 342 342 344 346 351 347 347 349 354 356 356 356 356 357
335 341 345 355 354 354 353 353 353 352 350 349 348 347 346 345 344 343 343 343 342 343 342 341 340 340 338 338 342 344 344 345 345 349 346 344 346 351 356 355 355 355 356
337 340 347 355 354 354 353 352 352 351 350 348 347 346 344 343 344 345 343 342 342 341 341 342 342 340 339 341 343 344 344 344 345 344 344 346 344 350 354 355 355 355 357
337 340 349 355 355 355 353 352 352 352 350 347 346 345 343 343 344 343 341 341 341 341 341 342 341 342 343 342 342 343 343 344 342 342 342 342 344 350 354 356 356 355 356
342 346 349 354 355 355 355 352 350 347 345 343 341 340 341 341 341 340 340 339 339 339 340 340 342 342 342 342 342 342 342 343 341 340 342 342 345 350 353 354 354 354 356
341 344 345 348 352 352 350 349 347 345 342 338 334 334 335 335 336 337 337 337 338 338 338 340 342 342 342 341 340 341 342 342 337 338 341 340 346 350 353 355 354 355 355
332 336 336 335 336 337 340 345 344 340 336 335 335 335 334 333 334 334 335 335 336 336 337 339 340 341 340 341 340 339 341 342 336 338 338 342 348 351 352 353 353 354 353
322 325 330 328 330 332 333 336 340 338 336 336 335 334 333 326 324 326 331 335 336 338 338 337 339 339 338 339 338 337 340 332 336 336 338 347 349 350 352 353 353 353 351
313 315 316 319 323 327 333 330 330 328 328 328 325 324 322 322 322 328 331 334 335 336 337 337 338 338 338 328 329 334 331 332 334 335 337 348 349 350 351 350 349 346 348
312 316 317 319 320 321 323 324 323 321 321 322 323 323 323 323 322 322 322 324 324 331 328 332 331 331 329 326 326 328 330 331 331 333 339 347 348 350 350 350 350 349 348
313 314 315 319 320 321 323 323 322 323 321 321 321 322 321 321 320 321 322 323 323 324 325 325 325 326 327 326 325 324 330 330 329 331 336 347 348 349 349 350 348 347 346
313 317 319 320 322 323 323 322 322 322 322 322 321 323 323 321 320 325 325 324 321 322 323 322 324 324 324 325 324 323 327 329 329 331 335 347 347 347 348 348 346 345 346
316 319 319 320 323 324 322 322 323 322 324 323 323 323 323 322 323 324 319 320 319 320 322 322 322 322 323 324 323 324 327 329 330 332 334 338 345 345 346 347 347 346 346
315 319 318 320 322 322 322 322 322 323 325 323 324 323 323 322 322 321 319 319 320 320 320 321 321 322 322 323 323 323 328 329 330 332 335 336 339 345 344 346 347 346 345
315 317 319 324 321 321 319 321 323 324 324 323 323 323 324 324 323 320 319 320 320 319 319 319 319 319 320 320 321 322 326 328 330 332 334 335 334 338 344 344 345 344 345
316 316 318 319 319 319 321 322 323 324 323 324 323 323 322 323 322 320 320 320 320 318 317 318 317 319 318 319 321 322 324 325 330 333 334 333 336 336 339 344 343 343 341
316 317 319 320 319 321 322 321 323 322 324 325 325 323 323 322 323 321 320 320 320 317 316 317 316 319 319 319 324 323 323 323 329 330 333 335 337 335 337 338 339 338 338
317 318 318 319 320 321 318 319 318 319 322 323 326 326 325 322 323 321 320 320 319 317 316 317 317 318 317 319 317 318 319 323 326 331 333 334 334 335 336 336 336 335 337
317 319 319 320 319 320 318 322 320 321 322 323 324 325 327 325 326 323 321 320 319 317 317 318 318 316 317 319 316 318 314 319 326 330 332 332 332 334 333 333 333 333 333
316 318 320 320 320 318 321 321 320 320 321 322 323 324 323 324 327 324 322 320 319 318 317 317 318 317 316 318 319 320 314 312 319 328 328 330 331 332 332 331 332 332 333
314 317 320 320 318 320 320 319 319 318 317 319 320 321 321 323 324 324 322 321 320 318 317 318 320 319 319 317 320 324 323 322 317 318 327 328 330 330 330 331 331 332 332
317 317 320 317 320 321 319 320 320 317 319 319 319 319 320 322 325 324 323 321 319 318 318 321 319 319 319 319 320 321 321 320 322 322 318 323 327 329 330 330 330 331 333
315 317 317 316 318 320 320 320 319 318 318 317 317 318 318 319 323 322 323 320 318 318 319 319 319 320 319 321 323 324 322 319 320 322 321 321 321 325 328 329 330 331 331
Wind_Speed
10 14 22 20 19 19 18 18 16 14 13 13 12 11 11 9 8 7 7 6 5 6 7 9 9 8 7 7 8 7 6 7 9 8 11 14 13 14 13 15 19 14 16
14 14 21 19 19 19 19 17 15 14 13 12 10 9 9 9 9 8 7 7 7 7 9 10 10 10 9 8 8 8 7 7 9 9 12 12 12 14 14 15 15 15 16
15 14 18 21 21 21 19 17 16 15 14 13 12 12 13 12 11 11 10 9 8 8 9 11 12 12 11 10 10 9 8 7 8 9 11 6 5 12 13 14 17 19 19
14 12 14 21 20 18 17 15 15 14 14 13 13 13 11 12 14 13 12 11 10 10 11 11 12 13 12 11 11 10 9 8 7 8 5 5 6 12 13 14 19 20 20
12 13 13 19 18 16 14 12 12 12 13 13 12 12 11 12 14 14 13 13 13 14 13 13 13 14 14 13 10 11 9 8 7 6 5 5 5 8 13 15 19 21 20
12 11 13 18 17 14 13 12 12 13 12 11 11 12 12 13 14 13 15 15 15 16 16 15 15 13 15 13 11 10 9 9 8 4 5 6 6 11 15 17 19 21 20
8 8 11 17 16 15 14 13 13 11 11 11 12 12 13 14 14 14 15 15 16 17 17 17 16 16 14 12 12 9 7 8 5 4 5 5 5 12 16 18 20 21 20
13 9 11 17 17 16 14 12 10 9 8 7 5 6 9 11 13 15 16 17 18 18 19 19 17 16 15 11 10 7 8 9 6 4 5 5 9 14 19 20 20 20 21
11 11 9 10 14 17 15 13 12 11 9 7 6 8 10 12 15 17 18 19 20 21 21 20 17 16 16 13 11 9 9 11 6 4 4 4 12 17 21 21 21 22 21
10 10 10 8 7 7 7 14 13 11 10 9 9 9 10 9 11 13 15 16 19 20 21 19 19 17 17 14 10 9 10 12 5 4 4 4 13 17 22 22 23 23 21
6 7 7 7 6 7 6 6 10 11 11 11 10 9 6 3 6 8 11 16 15 18 19 19 18 17 18 14 12 11 12 3 4 3 3 10 12 16 22 23 22 22 22
7 5 6 7 7 7 4 5 5 5 4 5 5 6 3 5 5 6 10 13 14 11 16 17 15 16 16 3 3 10 3 4 4 4 3 13 13 18 21 23 24 22 21
7 5 8 7 7 7 6 4 2 1 3 3 5 5 4 3 3 4 3 4 4 6 3 6 7 5 6 4 4 4 4 4 3 3 5 14 14 20 24 25 25 26 24
9 9 8 8 7 6 4 4 4 3 3 3 4 5 4 3 4 4 3 4 4 3 3 3 3 4 5 5 6 5 6 4 3 3 5 15 15 18 24 26 27 26 23
9 9 10 9 7 6 5 3 3 4 4 5 4 5 4 4 4 3 3 3 3 3 3 4 4 3 5 5 5 6 6 6 6 3 3 15 15 19 24 27 26 26 25
11 11 9 9 8 7 5 5 5 4 5 4 4 5 6 5 4 3 4 4 4 3 3 4 4 4 4 3 4 5 5 5 6 6 4 5 17 23 23 26 28 26 27
10 11 10 9 8 8 7 6 4 5 4 4 4 6 5 5 5 5 4 4 5 3 4 4 3 3 4 3 5 4 4 6 5 6 4 3 7 18 21 23 25 27 29
11 11 9 8 8 7 5 5 4 4 4 4 4 4 6 5 6 5 4 4 4 3 4 3 4 3 3 4 4 3 4 5 5 5 4 4 3 5 15 21 23 26 28
11 10 9 8 8 7 6 4 4 6 4 4 4 4 5 5 6 5 4 4 4 3 4 4 2 3 3 3 4 3 4 3 4 3 5 5 4 6 6 18 23 22 30
9 9 8 6 7 6 3 1 3 3 4 3 4 4 6 5 6 5 4 5 3 3 3 3 3 3 2 3 3 4 3 3 3 4 5 4 6 6 7 10 11 14 24
8 9 8 7 6 3 1 1 1 4 3 3 4 6 6 5 6 5 3 4 3 4 5 4 3 4 3 3 3 1 2 2 4 5 5 5 6 6 8 8 8 10 11
9 8 8 7 6 4 2 2 3 3 3 4 1 3 5 6 6 5 4 4 4 3 5 5 4 3 2 4 4 3 3 3 3 4 5 5 8 7 7 11 12 9 8
9 9 8 8 7 4 3 2 1 2 2 1 1 3 3 2 4 5 4 4 4 3 4 4 5 6 4 1 2 4 3 3 4 2 5 6 9 7 7 9 11 11 9
8 8 8 7 7 4 5 2 3 2 2 1 1 1 0 1 2 2 4 4 4 2 4 5 5 4 4 4 1 1 2 5 4 5 6 6 7 9 10 7 9 10 8
8 8 7 8 6 6 5 3 3 0 1 0 1 2 0 1 0 2 3 3 3 1 3 4 4 5 2 4 4 2 2 4 3 3 8 8 6 5 7 7 8 8 8
7 7 7 8 5 5 4 3 5 4 4 4 1 2 1 1 2 3 4 3 2 2 4 3 3 5 3 4 3 4 4 4 4 6 7 9 9 5 6 7 8 8 6
Wind_Direction
210 181 180 175 170 171 176 179 180 179 176 177 184 186 187 187 185 185 188 200 216 251 256 264 266 264 269 276 276 275 291 305 304 279 210 207 179 173 175 161 144 132 139
159 174 178 177 176 178 183 184 184 185 185 189 195 208 219 218 214 212 210 218 220 235 256 259 261 266 259 268 274 273 278 294 307 299 213 212 207 187 176 162 152 142 140
157 168 176 182 184 184 186 185 186 188 190 195 204 214 219 224 236 235 227 225 231 236 244 255 256 253 260 262 268 268 271 280 292 295 221 213 223 205 179 171 155 149 147
156 167 179 186 186 187 189 188 189 191 196 204 215 221 223 229 235 242 241 239 241 242 241 244 256 258 253 254 262 269 266 273 279 293 232 210 222 214 196 179 169 165 154
159 171 182 184 185 188 189 190 193 199 207 217 227 227 227 235 240 242 244 248 248 247 246 246 243 253 253 253 254 261 258 262 264 285 220 213 202 217 207 185 177 171 165
166 171 178 178 182 182 187 194 201 215 221 227 234 231 236 245 249 246 243 245 248 251 252 251 245 244 250 248 252 261 278 251 252 251 224 231 206 213 207 188 181 173 166
153 158 168 176 176 180 190 199 212 227 230 235 241 244 246 251 252 254 255 255 252 252 252 248 248 243 241 239 249 254 262 243 239 230 231 221 224 215 205 193 186 176 169
151 149 164 172 176 180 189 193 193 180 178 188 219 249 263 264 264 258 255 256 256 254 248 246 243 237 239 228 234 244 246 240 240 235 229 218 218 218 208 198 183 175 167
146 151 165 173 180 181 181 179 179 184 190 198 220 245 257 263 264 263 260 259 257 256 254 250 252 240 234 222 222 239 251 238 219 238 241 224 228 223 206 198 182 175 166
156 166 175 176 169 161 163 177 187 189 194 201 219 235 244 247 262 268 266 262 259 257 253 247 247 243 230 219 210 228 247 239 226 235 243 219 225 226 204 194 180 174 163
171 176 175 150 152 151 168 186 193 199 209 213 221 244 242 231 242 268 272 265 260 255 254 249 247 235 223 218 215 225 242 226 223 233 234 229 227 219 200 188 175 164 161
188 170 154 148 158 164 163 185 180 218 237 203 207 216 224 235 241 247 268 286 278 284 254 249 241 221 218 189 222 223 220 222 220 231 221 231 223 204 192 180 164 160 165
171 139 150 148 162 146 147 174 188 225 224 222 230 233 226 231 256 270 287 300 292 278 282 240 221 204 199 171 200 219 231 223 223 230 225 233 214 207 189 175 169 169 163
155 151 156 152 146 153 139 161 188 173 187 220 232 241 219 227 236 249 244 266 270 255 249 209 207 185 185 179 202 216 229 219 225 232 226 219 201 196 192 180 170 164 163
144 155 160 160 151 158 150 188 196 214 219 228 231 223 210 214 228 224 249 253 248 235 223 214 203 193 204 199 213 215 232 220 225 222 216 216 197 192 177 162 169 167 170
154 160 157 157 164 151 178 200 216 219 239 240 242 232 235 207 211 222 237 240 245 212 220 206 201 197 211 211 229 235 241 231 227 218 214 223 198 183 185 177 176 176 173
163 155 165 163 161 164 195 210 223 231 232 236 238 228 222 195 206 217 227 234 238 220 221 215 210 197 214 217 234 232 217 231 225 202 196 199 195 186 180 186 188 190 168
148 161 165 157 163 177 201 228 236 236 233 237 225 217 223 215 217 219 221 233 232 216 203 197 179 201 215 210 233 205 206 213 209 175 148 139 169 163 173 178 170 161 159
157 152 152 144 164 180 209 218 243 245 240 241 216 209 221 227 228 219 227 233 223 212 203 198 167 164 189 223 231 190 204 177 199 140 137 134 137 134 154 169 160 153 146
146 138 137 151 154 165 187 286 284 273 257 228 217 209 215 226 226 219 230 229 195 192 189 166 161 187 185 211 220 175 195 158 200 139 147 139 114 126 139 151 149 143 153
130 128 148 153 163 139 148 279 285 247 261 248 204 217 218 227 231 221 206 221 187 182 193 172 158 182 226 162 104 126 103 116 161 145 154 124 117 103 123 140 138 148 164
145 151 155 169 158 171 148 210 200 234 265 244 226 257 251 225 224 208 205 213 187 164 179 174 152 121 182 185 145 145 107 27 25 127 114 135 114 113 124 120 126 125 147
148 164 166 171 162 159 146 120 31 6 299 337 272 256 244 230 178 188 196 199 172 173 188 178 166 158 157 110 167 146 129 178 134 140 129 137 123 118 117 121 118 126 118
167 163 158 161 153 150 157 141 179 199 263 266 251 259 249 156 176 165 163 169 165 180 190 184 174 161 141 155 117 18 182 156 167 154 133 122 121 120 130 125 129 136 131
153 155 159 146 148 166 188 151 139 311 278 39 68 96 38 12 69 146 142 160 146 151 164 179 155 149 139 133 148 150 80 52 109 152 126 131 109 110 120 130 136 134 138
144 141 147 146 161 195 198 165 136 120 111 90 75 82 322 64 37 118 118 138 147 143 145 189 139 127 132 128 139 163 163 154 149 98 128 134 132 117 117 122 133 131 113